Погода в Нозовке

Погода в Нозовке : погода сейчас, прогноз погоды и архив. Всё, что Вы хотите узнать о погоде в Нозовке!

Поиск расширенной информации на нашем сайте:

Другие новости

Новости СМИ2

Главная страница сайта

Новости сайта

03.07.2017

Напоминаем, что на нашем специализированном сайте Метеоцентр.Азия вы можете получить высокодетализированные автоматические прогнозы погоды по пунктам России, СНГ и мира в авиационном формате (включающие направление и скорость ветра, видимость, явления погоды, количество и форму облачности, нижнюю и верхнюю границу облачности).


Погода в Нозовке - сегодня

Время (UTC), дата Ветер
(°,м/с) 
Видим.   Явления Облачность Т
(°С)
Тd
(°С)
f(%) Тe
(°С)
Pmin
(гПа)
dP
(гПа)
Po
(мм)
O2
(г/м3)
Тmin Tmax R s Состояние
почвы
15 09.12.17 250 (З) 20000 м    4/4 2000 м средняя 
[Ac und]
-11.9 -13.7 86 -12  1018.1  0.4  751  317    -6.8  0.2     
18 09.12.17 280 (З) 20000 м    3/3 2000 м средняя 
[Ac und]
-13.5 -15.4 86 -13  1018.8  0.6  751  320           
21 09.12.17 260 (З) 20000 м    3/3 2000 м средняя 
[Ac und]
-16.1 -18.3 83 -16  1020  752  323           
00 10.12.17 тихо ()   20000 м    ясно 
-17.7 -19.7 84 -18  1021.1  753  326           
03 10.12.17 230 (ЮЗ) 20000 м    ясно 
-19.2 -21.5 82 -19    1.5  754  328  -19.5      16  равномерный
сухой снег
100% 
06 10.12.17 270 (З) 20000 м    ясно 
-17.5 -19.9 82 -18  1023.9  1.3  755  326           
09 10.12.17 290 (З) 20000 м    ясно 
-14.3 -17.2 79 -14  1024.7  755  323           
12 10.12.17 тихо ()   20000 м    ясно 
-16.7 -19 82 -17  1026.3  1.4  756  326           
15 10.12.17 тихо ()   20000 м    ясно 
-19.3 -21.3 84 -19  1028  1.4  758  330    -14       
18 10.12.17 тихо ()   20000 м    ясно 
-21 -23.4 81 -21  1029.4  1.3  758  333           
21 10.12.17 тихо ()   20000 м    ясно 
-22.9 -25.8 77 -23  1030.1  0.6  759  336           
00 11.12.17 тихо ()   20000 м    ясно 
-23.3 -26.2 77 -23  1031.4  1.2  760  337           
03 11.12.17 060 (СВ) 20000 м    ясно 
-20.7 -23.2 80 -21  1031.7  0.4  760  333  -24.5      16  равномерный
сухой снег
100% 
06 11.12.17 070 (В) 20000 м    ясно 
-20 -22.8 78 -20  1033  1.3  761  333  -24.5         
09 11.12.17 100 (В) 20000 м    3/0 верхняя 
[Ci fib]
-15.8 -18.6 79 -16  1032.9  0.2  761  327           
12 11.12.17 090 (В) 20000 м    1/0 верхняя 
[Ci fib]
-19.7 -22.6 78 -20  1033.7  0.5  762  332           
15 11.12.17 070 (В) 20000 м    ясно 
-20 -22.5 80 -20  1033.9  0.1  762  333    -15.8       
18 11.12.17 080 (В) 20000 м    ясно 
-20.2 -22.8 80 -23  1033.8  0.1  762  333           
21 11.12.17 070 (В) 20000 м    ясно 
-19.9 -22.6 79 -20  1033.7  0.1  762  333           
00 12.12.17 050 (СВ) 20000 м    ясно 
-19.2 -21.7 81 -22  1033.1  -0.5  761  332           
03 12.12.17 070 (В) 20000 м    10/10 600 м 
[Sc]
-15.7 -18 82 -16  1032.4  -0.4  761  327  -21.3    0.0  16  равномерный
сухой снег
100% 
06 12.12.17 080 (В) 20000 м    10/10 600 м 
[Sc]
-12.3 -14.2 86 -14  1032.2  0.1  761  322           
09 12.12.17 160 (Ю) 20000 м    10/10 600 м 
[Sc]
-9.3 -11.1 87 -9  1032.2  0.2  761  319           
12 12.12.17 110 (В) 20000 м  {снег}  9/8 600 м средняя 
[Sc|Ac und]
-9.4 -11.4 85 -9  1032.4  0.2  761  319           
15 12.12.17 110 (В) 4000 м  слаб. снег  10/10 300 м 
[Ns]
-8.7 -10.9 84 -10  1033  0.6  762  318    -8.7  0.2     
Время (UTC), дата Ветер
(°,м/с) 
Видим.   Явления Облачность Т
(°С)
Тd
(°С)
f(%) Тe
(°С)
Pmin
(гПа)
dP
(гПа)
Po
(мм)
O2
(г/м3)
Тmin Tmax R s Состояние
почвы

Для получения пояснительной информации подведите курсор к названию столбца.

ПОГОДА в Нозовке - архив

Всё, что Вы хотите узнать о погоде в Нозовке - удобно и подробно!

Выберите нужную дату (начиная с 1 января 2015* года) и нажмите кнопку "Найти".
Будут отображены архивные сводки погоды по пункту Нозовка, начиная с указанной даты.


Отображать данные в формате CSV (для использования в таблицах Excel)


Внимание! Наш архив погоды предназначен исключительно для личного некоммерческого использования в познавательных целях. Если Вам необходимы официальные справки о состоянии погоды (для производственных, юридических, коммерческих и т.п. целей), обращайтесь в органы Росгидромета.

*Примечание: данная дата относится к архиву по метеостанциям СССР (Россия, СНГ, Балтия).
Архив по метеостанциям Зарубежной Европы и Азии (кроме Китая) хранится 10 дней, по другим регионам земного шара (Китай, Африка, Америка, Австралия, Океания) - 1 день.

Нозовка - район местоположения метеостанции


Название, широта, долгота, высота метеостанции:
Нозовка 57.1°ш. 54.8°д. 131 м над ур. моря [Российская Федерация]

Дополнительная информация

В oтличие oт бoльшинства пoгoдных сайтoв мы публикуем пoдрoбную метеoинфoрмацию в детальнoм прoфессиoнальнoм фoрмате.

Характеристики температуры и влажнoсти вoздуха измеряются на высoте 2 м в тени вдали oт зданий и деревьев.
Скoрoсть ветра измеряется на высoте 10 м (на урoвне рoста челoвека скoрoсть ветра ниже в 1.5-2 раза). Если метеoстанция нахoдится в гoрoде или в лесу, тo скoрoсть ветра занижена на 2-4 м/с пo сравнению с oткрытым местoм. Скoрoсть ветра над акватoриями крупных рек и oзёр, а также на вершинах хoлмoв на 2-5 м/с выше, чем в oбычных услoвиях.
Атмoсфернoе давление в разных тoчках местнoсти мoжет значительнo oтличаться oт давления на метеoстанции, в зависимoсти oт услoвий рельефа (при пoдъёме на 10 м давление пoнижается примернo на 1 мм рт.ст.).